Regional Weather Roundup
Issued by NWS

Home | Current Version | Previous Version | Text Only | Print | Product List | Glossary Off
Versions: 1 2 3 4 5 6 7 8 9 10 11 12 13 14 15 16 17 18 19 20 21 22 23 24 25 26 27 28 29 30 31 32 33 34 35 36 37 38 39 40 41 42 43 44 45 46 47 48 49 50

977
ASUS45 KBOU 220407
RWRCO

WEATHER ROUNDUP FOR COLORADO
NATIONAL WEATHER SERVICE DENVER/BOULDER CO
1000 PM MDT THU SEP 21 2017

NOTE: "FAIR" INDICATES FEW OR NO CLOUDS BELOW 12000 FEET WITH NO
SIGNIFICANT WEATHER AND/OR OBSTRUCTIONS TO VISIBILITY.

COZ001>005-013-030-031-220500-
...NORTHWEST COLORADO...

CITY           SKY/WX    TMP DP  RH WIND       PRES   REMARKS
CRAIG          FAIR      51  28  41 CALM      29.75S
HAYDEN         FAIR      59  22  24 SE5       29.80S
MEEKER         FAIR      60  20  21 VRB5      29.77R
RABBIT EARS PA FAIR      50  19  29 S10G22    30.07F
STEAMBOAT SPGS FAIR      55  28  35 CALM      29.82S
WALDEN         FAIR      48  23  37 SE9       29.92R
$$

COZ006>008-011-220500-
...WEST CENTRAL VALLEYS...

CITY           SKY/WX    TMP DP  RH WIND       PRES   REMARKS
GRAND JUNCTION FAIR      78  20  11 S8        29.68R
MONTROSE       FAIR      71  18  13 S13       29.82R
EAGLE          FAIR      57  25  29 E7        29.84R
RIFLE          FAIR      62  22  21 E6        29.73R
DELTA          FAIR      73  19  13 S6        29.76R
NUCLA          FAIR      72  14  11 S22G36    29.85R
$$

COZ017>023-064>068-220500-
...SOUTHWEST COLORADO...

CITY           SKY/WX    TMP DP  RH WIND       PRES   REMARKS
DURANGO        FAIR      65  26  23 SW9       29.95R
CORTEZ         FAIR      68  20  16 SW13      29.87R
PAGOSA SPRINGS FAIR      53  22  31 CALM      30.04R
TELLURIDE      FAIR      59  19  21 S16G25    30.07R
WOLF CREEK PAS CLOUDY    43  19  39 S17G26    30.32S
$$

COZ009-010-012-014-032>034-037-058>063-220500-
...CENTRAL COLORADO...

CITY           SKY/WX    TMP DP  RH WIND       PRES   REMARKS
ASPEN          FAIR      65  19  17 SE10      29.90R
BUENA VISTA    FAIR      60  16  17 S12G17    29.96F
COPPER MTN     FAIR      52  16  24 S20G30    30.20F
BERTHOUD PASS  FAIR      41  32  70 SW12G24   30.23F
COTTONWOOD PAS FAIR      61  10  13 S10G20    30.08F
GUNNISON       FAIR      57  21  24 S10       29.97R
KREMMLING      FAIR      64  18  16 SW3       29.87S
LEADVILLE      FAIR      52  15  23 SE9       30.06S
MONARCH PASS   FAIR      45  16  31 SW39G45   30.34F
SALIDA         FAIR      67  16  14 S7        30.02F
SUNLIGHT       FAIR      45  16  31 S12G24    30.10F
WILKERSON PASS FAIR      46  14  27 SW13G25   30.19S
$$

COZ069>075-220500-
...SAN LUIS VALLEY/SANGRE DE CRISTO MOUNTAINS...

CITY           SKY/WX    TMP DP  RH WIND       PRES   REMARKS
ALAMOSA        FAIR      48  30  49 S9        29.99S
DEL NORTE      FAIR      57  22  25 SW6       30.02S
LA VETA PASS   FAIR      54  27  35 S21G39    30.25F
SAGUACHE       FAIR      45  28  53 NW5       30.01S
$$

COZ035-036-038>040-220500-
...NORTHERN COLORADO FRONT RANGE...

CITY           SKY/WX    TMP DP  RH WIND       PRES   REMARKS
DENVER INTL AP FAIR      75  21  13 S21       29.69F
DMNS CITY PARK   N/A     75  22  13 E8G16     29.70S
AURORA         CLEAR     73  22  14 S16       29.73S
FRONT RANGE AP FAIR      70  23  17 SE13      29.73R
ERIE MUNI ARPT FAIR      66  26  22 SW6       29.71S
BOULDER MUN AP FAIR      70  27  19 SW8       29.67S
CENTENNIAL     FAIR      74  19  12 S21       29.75R
BROOMFIELD     PTCLDY    72  25  17 MISG      29.71S
FORT COLLINS   FAIR      65  39  38 W9        29.64R
LONGMONT       FAIR      58  34  40 CALM      29.68S
$$

COZ041-046-047-076>085-087-088-220500-
...PIKES PEAK/PALMER DIVIDE AND SOUTHERN FOOTHILLS...

CITY           SKY/WX    TMP DP  RH WIND       PRES   REMARKS
COLO. SPRINGS  FAIR      69  25  19 S5        29.84S
A. F. ACADEMY  FAIR      65  21  18 E6        29.85S
SCHRIEVER AFB  FAIR      64  21  19 SW10      29.85R
CHEYENNE MTN   FAIR      69  20  15 S6        29.83F
ELLICOTT         N/A    N/A N/A N/A S14       29.83S
FALCON         FAIR      62  22  20 SW7       29.89S
FORT CARSON    FAIR      73  21  14 CALM      29.81R
LIMON          FAIR      69  23  17 SW14      29.76R
MONUMENT HILL  FAIR      61  23  23 SW13      29.89F
CANON CITY     CLEAR     73  25  16 SW3       29.79S
WALSENBURG     FAIR      64  23  20 CALM      29.87S
TRINIDAD       FAIR      71  28  20 S13       29.87R
$$

COZ042>045-048>051-090-091-220500-
...NORTHEAST COLORADO...

CITY           SKY/WX    TMP DP  RH WIND       PRES   REMARKS
GREELEY ARPT   FAIR      70  30  22 S13       29.63R
AKRON          FAIR      70  25  18 S14       29.68F
BURLINGTON     FAIR      71  35  26 S15       29.72R
WRAY           FAIR      70  32  24 S13       29.65S
YUMA           FAIR      63  32  31 S9        29.67S
STERLING       FAIR      63  32  31 S7        29.61F
HOLYOKE        FAIR      64  36  34 S12       29.65S
FORT MORGAN    FAIR      65  25  21 S3        29.65S
$$

COZ086-089-092>099-220500-
...SOUTHEAST COLORADO...

CITY           SKY/WX    TMP DP  RH WIND       PRES   REMARKS
PUEBLO         FAIR      70  24  17 SW8       29.74R
LA JUNTA       FAIR      81  28  14 S15       29.73R
LAMAR          FAIR      75  33  21 S18G26    29.71R
SPRINGFIELD      N/A     66  47  50 S14       29.82S
$$




USA.gov is the U.S. government's official web portal to all federal, state and local government web resources and services.